ONEWEB-0042, 45441

Orbit data source: Space-Track

ONEWEB-0042, 45441 is a payload satellite owned by One Web (UK) in LEO that was launched on Sat, 21 Mar 2020 UTC via a SOYUZ-2-1B launch vehicle from the Tyuratam Missile And Space Complex (TTMTR). Payload-class satellites include a variety of spacecraft equipped with specific instruments for various scientific and technological missions. These include communications satellites like Starlink; space stations such as the ISS; scientific satellites like the Hubble; Earth observation satellites from companies like Planet Labs, Umbra, and HawkEye 360; GPS; miniature CubeSats for education and research; and military/defense satellites.

Loading next visibility...
Identifier
45441, 2020-020T
Orbit
LEO
Country
Flag of UKUK
Related business
Manufacturer
One Web
Mission
Operational Commercial Communications
Bus & Motor
ARROW, Unknown motor
Mass
148 kg wet, ~140 kg dry
Launch date (UTC)
2020-03-21 (6 years ago)
Launch vehicle
SOYUZ-2-1B
Launch site
Tyuratam Missile And Space Complex (TTMTR)
Object type
Payload
Rocket body
Debris
Shape & HBR
Trap Box + 2 Pan, 6.7 m
Radar Cross Section
3.464 m², Large (>1 m²)

Expand to show TLE details & history
Last TLE update: 2 days ago

TLE from 2 days ago
0 ONEWEB-0042
1 45441U 20020T   26171.32729317  .00000322  00000-0  87333-3 0  9997
2 45441  87.8891  20.4339 0001803  82.8329 277.3004 13.11418226303071
Epoch: 2026-06-20T07:51Z
TLE epoch observation values (Epoch: 2026-06-20T07:51:18.129Z)
Latitude
-0.00003°
Longitude
-5.93515°
Altitude
1,220.393 km
Speed
7.244 km/s
True Right ascension
01h 21m 44s
True Declination
0° 00' 00"
Sunlit
Object was in daylight at epoch
Visualization orbit readout
Latitude
Unknown
Longitude
Unknown
Altitude
Unknown
Speed
Unknown
Apparent Right ascension
Unknown
Apparent Declination
Unknown
Sunlit
N/A
Visualization observer readout
Local Sidereal Time
21:35:02
Azimuth
Unknown
Elevation
Unknown
Doppler factor
Unknown
Orbital elements
Apogee altitude
1,216.165 km
Perigee altitude
1,213.427 km
Semi-major axis
7,592.933 km
Eccentricity
0.00018
Inclination
87.8891°
RAAN
20.4339°
Arg. of periapsis
82.8329°
True anomaly
277.27991°
Mean anomaly
277.3004°
Eccentric anomaly
277.29015°
Mean motion
3.28042 °/min
Orbital period
109.74 mins
BSTAR
0.00087333
Loading maneuver chart data...
Computing Atmospheric mass density...
Loading historical data...
Loading historical data...
Loading historical data...
Loading historical data...
Loading historical data...
Loading historical data...
Loading historical data...

Documentation

Showing up to 5 results
|